AirNav   Air Wisconsin Up To $57,000 Bonus
 
 1055 users online  

03D Memphis Memorial Airport
Memphis, Missouri, USA

GOING TO MEMPHIS?


FAA INFORMATION EFFECTIVE 11 AUGUST 2022

Location

FAA Identifier: 03D
Lat/Long: 40-26-50.1000N 092-13-37.0000W
40-26.835000N 092-13.616667W
40.4472500,-92.2269444
(estimated)
Elevation: 813.3 ft. / 247.9 m (surveyed)
Variation: 03E (1985)
From city: 3 miles SW of MEMPHIS, MO
Time zone: UTC -5 (UTC -6 during Standard Time)
Zip code: 63555

Airport Operations

Airport use: Open to the public
Activation date: 05/1966
Control tower: no
ARTCC: KANSAS CITY CENTER
FSS: COLUMBIA FLIGHT SERVICE STATION
NOTAMs facility: COU (NOTAM-D service available)
Attendance: UNATNDD
Wind indicator: lighted
Segmented circle: yes
Lights: PAPI RWY 12 AND 30; MIRL RWY 12/30 OPER DUSK TO 0100. TO ACTVT AND INCR INTST - CTAF.
Beacon: white-green (lighted land airport)
Operates sunset to sunrise.

Airport Communications

CTAF: 122.9
  • APCH/DEP SVC PRVDD BY KANSAS CITY ARTCC ON FREQS 126.225/317.775 (QUINCY RCAG).

Nearby radio navigation aids

VOR radial/distance  VOR name  Freq  Var
IRKr036/25.1KIRKSVILLE VORTAC114.6006E
OTMr167/35.2OTTUMWA VOR/DME111.6006E

 
NDB name  Hdg/Dist  Freq  Var  ID
BLOOMFIELD151/20.126902EBEX -... . -..-
KEOKUK266/36.236602EEOK . --- -.-

Airport Services

Fuel available: 100LL
100LL:FOR FUEL CALL (660) 465-2611.
Parking: tiedowns
Bottled oxygen: NONE
Bulk oxygen: NONE

Runway Information

Runway 12/30

Dimensions: 3300 x 60 ft. / 1006 x 18 m
Surface: concrete, in fair condition
Weight bearing capacity: 
Single wheel: 12.5
Runway edge lights: medium intensity
RUNWAY 12  RUNWAY 30
Latitude: 40-26.979298N40-26.691547N
Longitude: 092-13.919165W092-13.315655W
Elevation: 813.2 ft.805.7 ft.
Traffic pattern: leftleft
Runway heading: 119 magnetic, 122 true299 magnetic, 302 true
Markings: nonprecision, in fair conditionnonprecision, in fair condition
Visual slope indicator: 2-light PAPI on left (3.00 degrees glide path)2-light PAPI on left (3.00 degrees glide path)
Touchdown point: yes, no lightsyes, no lights

Airport Ownership and Management from official FAA records

Ownership: Publicly-owned
Owner: CITY OF MEMPHIS
125 WEST JEFFERSON
MEMPHIS, MO 63555
Phone 660-465-7285
Manager: FRED CLAPP
404 WATKINS
MEMPHIS, MO 63555
Phone 660-465-2195
ARPT COMMITTEE CHAIRMAN.

Airport Operational Statistics

Aircraft based on the field: 10
Single engine airplanes: 10
    
Aircraft operations: avg 75/week *
54% transient general aviation
46% local general aviation
* for 12-month period ending 31 December 2020

Additional Remarks

RADIO CONTROLLED MODEL PLANES ON & INVOF ARPT.
FOR CD CTC KANSAS CITY ARTCC AT 913-254-8508.

Instrument Procedures

NOTE: All procedures below are presented as PDF files. If you need a reader for these files, you should download the free Adobe Reader.

NOT FOR NAVIGATION. Please procure official charts for flight.
FAA instrument procedures published for use from 11 August 2022 at 0901Z to 08 September 2022 at 0900z.

 
IAPs - Instrument Approach Procedures
RNAV (GPS) RWY 12   download (168KB)
RNAV (GPS) RWY 30   download (175KB)
NOTE: Special Take-Off Minimums/Departure Procedures apply   download (419KB)

Other nearby airports with instrument procedures:

4K6 - Bloomfield Municipal Airport (19 nm NW)
KIRK - Kirksville Regional Airport (26 nm SW)
6M6 - Lewis County Regional Airport (32 nm SE)
KTVK - Centerville Municipal Airport (34 nm NW)
KEOK - Keokuk Municipal Airport (36 nm E)
 
Loc | Ops | Rwys | IFR | FBO | Links
Com | Nav | Svcs | Stats | Notes
Area around 03D (Memphis Memorial Airport)
 
Road maps at: MapQuest Bing Google
 
Aerial photo
No photo
 
Sectional chart

 
Airport distance calculator
Flying to Memphis Memorial Airport? Find the distance to fly.

From to 03D

Sunrise and sunset
Times for 14-Aug-2022
 Local
(UTC-5)
 Zulu
(UTC)
Morning civil twilight05:5010:50
Sunrise06:2011:20
Sunset20:0701:07
Evening civil twilight20:3701:37

Current date and time
Zulu (UTC)  15-Aug-2022 01:47:28
Local (UTC-5)  14-Aug-2022 20:47:28
 
METAR
KIRK 
26nm SW 
150055Z AUTO 04005KT 10SM CLR 22/18 A3000 RMK AO2 SLP155 T02220178
KEOK 
37nm E 
150135Z AUTO 00000KT 10SM FEW031 21/19 A3000 RMK A01
KFFL 
37nm N 
150135Z AUTO 32005KT 10SM SCT029 BKN039 20/18 A3002 RMK A01
KOTM 
40nm N 
150053Z AUTO 01005KT 10SM CLR 22/16 A3000 RMK AO2 SLP154 T02220161
KFSW 
44nm E 
150135Z AUTO 00000KT 10SM SCT001 BKN025 OVC095 20/19 A3000 RMK AO2
KMPZ 
44nm NE 
150135Z AUTO 03005KT 10SM SCT027 SCT035 SCT043 22/21 A3001 RMK AO2
KOOA 
48nm N 
150135Z AUTO 34004KT 10SM CLR 21/20 A3004 RMK AO2 T02120200
TAF
KOTM 
40nm N 
141740Z 1418/1518 01008KT P6SM SCT035 FM150300 06007KT P6SM SCT025
NOTAMs
Click for the latest NOTAMs
NOTAMs are issued by the DoD/FAA and will open in a separate window not controlled by AirNav.

 

 
 

FBO, Fuel Providers, and Aircraft Ground Support

  
 Business Name 
 
 Contact 
 
 Services / Description 
 
Fuel Prices
 
Comments
  
Memphis Memorial Airport 660-465-7285
no information available

If you are affiliated with Memphis Memorial Airport and would like to show here your services, contact info, web link, logo, and more, click here
100LL
AS $6.96 
 Updated 05-Aug-2022
 
   1 read write
AS=Assisted/Self Service
Update Fuel Prices
 

Would you like to see your business listed on this page?

 If your business provides an interesting product or service to pilots, flight crews, aircraft, or users of the Memphis Memorial Airport, you should consider listing it here.  To start the listing process, click on the button below
 
Add a business
 

Other Pages about Memphis Memorial Airport

Update a link
 
Copyright © AirNav, LLC. All rights reserved. Privacy Policy  Contact